This is the latest recevied weather packets stored in our database for station/object W4BOD. If no packets are shown the sender has not sent any weather packets the latest 10 day(s).
| Time | Temp. | Humidity | Pressure | Rain* | Wind** | Luminosity | Snow |
|---|---|---|---|---|---|---|---|
| 1777577471 | 18.33° C | 43% | 1016.2 hPa | 0 mm | - | 598 W/m² | - |
| 1777577168 | 18.33° C | 41% | 1016.4 hPa | 0 mm | - | 812 W/m² | - |
| 1777576864 | 18.33° C | 42% | 1016.4 hPa | 0 mm | - | 745 W/m² | - |
| 1777576563 | 18.89° C | 39% | 1016.3 hPa | 0 mm | - | 593 W/m² | - |
| 1777576259 | 18.33° C | 42% | 1016.2 hPa | 0 mm | - | 660 W/m² | - |
| 1777575956 | 18.89° C | 40% | 1016.4 hPa | 0 mm | - | 754 W/m² | - |
| 1777575652 | 18.33° C | 41% | 1016.3 hPa | 0 mm | - | 606 W/m² | - |
| 1777575348 | 18.33° C | 40% | 1016.2 hPa | 0 mm | - | 609 W/m² | - |
| 1777575044 | 17.78° C | 42% | 1016.3 hPa | 0 mm | - | 619 W/m² | - |
| 1777574740 | 18.33° C | 40% | 1016.3 hPa | 0 mm | - | 562 W/m² | - |
| 1777574438 | 18.33° C | 40% | 1016.3 hPa | 0 mm | - | 546 W/m² | - |
| 1777574133 | 17.22° C | 41% | 1016.3 hPa | 0 mm | - | 622 W/m² | - |
| 1777573829 | 17.78° C | 42% | 1016.4 hPa | 0 mm | - | 526 W/m² | - |
| 1777573524 | 17.78° C | 41% | 1016.5 hPa | 0 mm | - | 548 W/m² | - |
| 1777573221 | 17.78° C | 41% | 1016.5 hPa | 0 mm | - | 581 W/m² | - |
| 1777572917 | 17.22° C | 44% | 1016.5 hPa | 0 mm | - | 543 W/m² | - |
| 1777572612 | 17.78° C | 44% | 1016.6 hPa | 0 mm | - | 574 W/m² | - |
| 1777572312 | 17.78° C | 45% | 1016.7 hPa | 0 mm | - | 592 W/m² | - |
| 1777572009 | 17.78° C | 42% | 1016.8 hPa | 0 mm | - | 627 W/m² | - |
| 1777571703 | 17.78° C | 41% | 1016.8 hPa | 0 mm | - | 669 W/m² | - |
| 1777571401 | 17.78° C | 43% | 1016.8 hPa | 0 mm | - | 621 W/m² | - |
| 1777571097 | 17.78° C | 42% | 1016.9 hPa | 0 mm | - | 565 W/m² | - |
| 1777570793 | 18.33° C | 45% | 1016.9 hPa | 0 mm | - | 708 W/m² | - |
| 1777570489 | 17.78° C | 43% | 1017 hPa | 0 mm | - | 748 W/m² | - |
| 1777570185 | 17.78° C | 44% | 1016.8 hPa | 0 mm | - | 744 W/m² | - |
* Rain latest hour (hover to see other rain measurements)
** Current wind speed in m/s (hover to see current wind gust speed)